STARLINK-33587, 63469

Orbit data source: Space-Track

STARLINK-33587, 63469 is a payload satellite owned by SpaceX/Seattle (US) in LEO that was launched on Sun, 06 Apr 2025 UTC via an FALCON 9 launch vehicle from the Air Force Eastern Test Range (AFETR). Payload-class satellites include a variety of spacecraft equipped with specific instruments for various scientific and technological missions. These include communications satellites like Starlink; space stations such as the ISS; scientific satellites like the Hubble; Earth observation satellites from companies like Planet Labs, Umbra, and HawkEye 360; GPS; miniature CubeSats for education and research; and military/defense satellites.

Loading next visibility...
Identifier
63469, 2025-070K
Orbit
LEO
Country
Flag of USUS
Related business
Manufacturer
SpaceX/Seattle
Mission
Operational Commercial Communications
Bus & Motor
STARLINK V2MO, Unknown motor
Mass
575 kg wet, ~530 kg dry
Launch date (UTC)
2025-04-06 (1 year ago)
Launch vehicle
FALCON 9
Launch site
Air Force Eastern Test Range (AFETR)
Object type
Payload
Rocket body
Debris
Shape & HBR
Box + 2 Pan, 17.7 m
Radar Cross Section
36.964 m², Large (>1 m²)

Expand to show TLE details & history
Last TLE update: 1 day ago

TLE from 1 day ago
0 STARLINK-33587
1 63469U 25070K   26169.02870435  .00015469  00000-0  57030-3 0  9998
2 63469  42.9995  52.9940 0001428 268.7816  91.2872 15.27590411 68323
Epoch: 2026-06-18T00:41Z
TLE epoch observation values (Epoch: 2026-06-18T00:41:20.055Z)
Latitude
-0.00004°
Longitude
136.38249°
Altitude
482.815 km
Speed
7.626 km/s
True Right ascension
03h 31m 58s
True Declination
0° 00' 00"
Sunlit
Object was in daylight at epoch
Visualization orbit readout
Latitude
Unknown
Longitude
Unknown
Altitude
Unknown
Speed
Unknown
Apparent Right ascension
Unknown
Apparent Declination
Unknown
Sunlit
N/A
Visualization observer readout
Local Sidereal Time
14:03:22
Azimuth
Unknown
Elevation
Unknown
Doppler factor
Unknown
Orbital elements
Apogee altitude
485.943 km
Perigee altitude
483.983 km
Semi-major axis
6,863.1 km
Eccentricity
0.00014
Inclination
42.9995°
RAAN
52.994°
Arg. of periapsis
268.7816°
True anomaly
91.30356°
Mean anomaly
91.2872°
Eccentric anomaly
91.29538°
Mean motion
3.81736 °/min
Orbital period
94.31 mins
BSTAR
0.0005703
Loading maneuver chart data...
Computing Atmospheric mass density...
Loading historical data...
Loading historical data...
Loading historical data...
Loading historical data...
Loading historical data...
Loading historical data...
Loading historical data...

Documentation

Showing up to 5 results
|